Regional Weather Roundup
Issued by NWS

Home | Current Version | Previous Version | Graphics & Text | Print | Product List | Glossary On
Versions: 1 2 3 4 5 6 7 8 9 10 11 12 13 14 15 16 17 18 19 20 21 22 23 24 25 26 27 28 29 30 31 32 33 34 35 36 37 38 39 40 41 42 43 44 45 46 47 48 49 50
000
ASUS43 KLMK 280810
RWRKY
KENTUCKY REGIONAL WEATHER ROUNDUP
NATIONAL WEATHER SERVICE LOUISVILLE KY
400 AM EDT TUE MAR 28 2017

NOTE "FAIR" INDICATES FEW OR NO CLOUDS BELOW 12,000 FEET
WITH NO SIGNIFICANT WEATHER AND/OR OBSTRUCTIONS TO VISIBILITY.

KYZ001>023-026-027-061>063-070>075-280900-
WESTERN AND SOUTH CENTRAL KENTUCKY

CITY           SKY/WX    TMP DP  RH WIND       PRES   REMARKS
PADUCAH        CLOUDY    56  51  84 W5        29.91R
HENDERSON      CLOUDY    55  52  88 W5        29.86F
OWENSBORO        N/A    N/A N/A N/A MISG        N/A
HOPKINSVILLE   CLOUDY    55  55 100 W7        29.90R
BOWLING GREEN  CLEAR     55  54  96 SW3       29.88S
GLASGOW        CLOUDY   N/A N/A N/A SW3       29.88R FOG
$$

KYZ024-025-028>034-038-045-046-053-280900-
NORTH CENTRAL KENTUCKY

CITY           SKY/WX    TMP DP  RH WIND       PRES   REMARKS
LOUISVILLE/SDF CLOUDY    58  54  86 SW6       29.85S
LOUISVILLE/LOU CLOUDY    57  54  89 SW3       29.85S
FORT KNOX      CLOUDY    54  54 100 CALM      29.85R
$$

KYZ035>037-039>044-047>052-055>060-089>105-280900-
NORTHEAST KENTUCKY

CITY           SKY/WX    TMP DP  RH WIND       PRES   REMARKS
LEXINGTON      CLOUDY    56  54  93 S5        29.85F
COVINGTON      CLOUDY    55  54  96 SW3       29.83S
FRANKFORT      MOCLDY    55  52  89 SW6       29.83F
$$

KYZ054-064>069-076>088-106>120-280900-
SOUTHEAST KENTUCKY

CITY           SKY/WX    TMP DP  RH WIND       PRES   REMARKS
JACKSON        MOCLDY    55  53  93 CALM      29.85S
LONDON         MOCLDY    55  52  89 S5        29.86F
SOMERSET       CLOUDY    52  52 100 CALM      29.88S
MIDDLESBORO    MOCLDY    55  55  99 CALM      29.89S
MONTICELLO     CLOUDY    58  54  86 W12G22    29.89S
$$





USA.gov is the U.S. government's official web portal to all federal, state and local government web resources and services.